TOM3XM LEMH-EGHH

Flight info

Callsign TOM3XM
Flight time N/A
Altitude 31000
Route SARGO L16 VERSO M601 SULID/N0460F330 M601 CAVES/N0460F320 N861 OLOXO DCT OKABI DCT RARAK DCT VELIN DCT TUPAR UM184 LUGEN UM616 USODA UM184 RINSO UN867 EKRAS UT507 REVTU UY110 ORIST Y110 THRED
Aircraft B738/M-SDE2E3FGHIRWXY/LB1

Departure

Time 2026-04-17 11:07
Airport Menorca Airport (LEMH)

Arrival

Time N/A
Airport Bournemouth Airport (EGHH)
Time Latitude Longitude Altitude Speed Heading
2026-04-17 10:41 39.86371 4.22391 290 ft 0 kts 99°
2026-04-17 10:58 39.86372 4.22377 290 ft 2 kts 99°
2026-04-17 10:58 39.86375 4.22357 290 ft 2 kts 99°
2026-04-17 10:58 39.86377 4.22338 291 ft 2 kts 102°
2026-04-17 10:58 39.86384 4.22321 291 ft 2 kts 133°
2026-04-17 10:59 39.86396 4.22309 291 ft 2 kts 156°
2026-04-17 10:59 39.86411 4.22304 291 ft 2 kts 180°
2026-04-17 10:59 39.86418 4.22305 292 ft 1 kts 193°
2026-04-17 10:59 39.86422 4.22306 292 ft 0 kts 189°
2026-04-17 11:02 39.86421 4.22306 292 ft 1 kts 189°
2026-04-17 11:02 39.86366 4.22296 291 ft 15 kts 188°
2026-04-17 11:03 39.86264 4.22274 291 ft 12 kts 189°
2026-04-17 11:03 39.86187 4.22216 291 ft 14 kts 256°
2026-04-17 11:03 39.86179 4.22099 293 ft 12 kts 232°
2026-04-17 11:03 39.86088 4.22067 293 ft 16 kts 188°
2026-04-17 11:04 39.85946 4.22039 292 ft 24 kts 189°
2026-04-17 11:04 39.85774 4.22003 291 ft 28 kts 188°
2026-04-17 11:04 39.85568 4.21961 288 ft 28 kts 188°
2026-04-17 11:04 39.85387 4.21923 285 ft 23 kts 189°
2026-04-17 11:05 39.85247 4.21896 283 ft 17 kts 189°
2026-04-17 11:05 39.85148 4.21871 281 ft 12 kts 202°
2026-04-17 11:05 39.85129 4.21775 281 ft 13 kts 279°
2026-04-17 11:05 39.85146 4.21673 281 ft 9 kts 291°
2026-04-17 11:06 39.85196 4.21647 281 ft 11 kts
2026-04-17 11:06 39.85398 4.21687 285 ft 62 kts
2026-04-17 11:06 39.86056 4.21825 296 ft 129 kts
2026-04-17 11:06 39.87137 4.22046 326 ft 182 kts
2026-04-17 11:07 39.88432 4.22292 870 ft 194 kts
2026-04-17 11:07 39.89871 4.22563 1287 ft 222 kts
2026-04-17 11:07 39.91464 4.22862 1875 ft 241 kts
2026-04-17 11:07 39.93131 4.23177 2558 ft 245 kts
2026-04-17 11:08 39.94832 4.23498 3258 ft 247 kts
2026-04-17 11:08 39.96503 4.23816 3950 ft 251 kts
2026-04-17 11:08 39.98253 4.24148 4476 ft 258 kts
2026-04-17 11:08 40.00024 4.24483 5150 ft 267 kts
2026-04-17 11:09 40.01865 4.24830 5950 ft 272 kts
2026-04-17 11:09 40.03743 4.25184 6738 ft 276 kts
2026-04-17 11:09 40.05658 4.25544 7485 ft 282 kts
2026-04-17 11:10 40.09550 4.26275 9116 ft 286 kts
2026-04-17 11:10 40.11440 4.26129 9648 ft 284 kts 342°
2026-04-17 11:10 40.13273 4.25178 10329 ft 285 kts 331°
2026-04-17 11:10 40.15052 4.23915 10738 ft 302 kts 329°
2026-04-17 11:11 40.16959 4.22503 10864 ft 328 kts 329°
2026-04-17 11:11 40.18992 4.21033 11294 ft 342 kts 330°
2026-04-17 11:11 40.21085 4.19546 12050 ft 347 kts 330°
2026-04-17 11:11 40.23223 4.18037 12820 ft 351 kts 330°
2026-04-17 11:12 40.25369 4.16528 13588 ft 354 kts 331°
2026-04-17 11:12 40.27550 4.14996 14341 ft 357 kts 330°
2026-04-17 11:12 40.29740 4.13457 15067 ft 361 kts 330°
2026-04-17 11:12 40.31953 4.11903 15784 ft 364 kts 330°
2026-04-17 11:13 40.34198 4.10324 16474 ft 368 kts 330°
2026-04-17 11:13 40.36428 4.08756 17150 ft 371 kts 330°
2026-04-17 11:13 40.38723 4.07140 17809 ft 374 kts 330°
2026-04-17 11:13 40.41013 4.05527 18457 ft 377 kts 330°
2026-04-17 11:14 40.43323 4.03899 19091 ft 380 kts 330°
2026-04-17 11:14 40.45657 4.02254 19705 ft 384 kts 331°
2026-04-17 11:14 40.48031 4.00697 20313 ft 387 kts 334°
2026-04-17 11:14 40.50531 3.99370 20877 ft 392 kts 339°
2026-04-17 11:15 40.53140 3.98270 21466 ft 395 kts 341°
2026-04-17 11:15 40.55780 3.97253 22033 ft 398 kts 342°
2026-04-17 11:15 40.58437 3.96263 22567 ft 401 kts 342°
2026-04-17 11:15 40.61118 3.95280 23106 ft 404 kts 342°
2026-04-17 11:16 40.63849 3.94286 23633 ft 407 kts 343°
2026-04-17 11:16 40.66563 3.93303 24137 ft 410 kts 343°
2026-04-17 11:16 40.69333 3.92303 24641 ft 413 kts 343°
2026-04-17 11:16 40.72112 3.91301 25128 ft 416 kts 343°
2026-04-17 11:17 40.74875 3.90306 25601 ft 419 kts 343°
2026-04-17 11:17 40.77695 3.89291 26070 ft 421 kts 343°